Weather in Nikolayevskaya

Russia / Chechen Republic     43°31′43″N   45°46′47″E
temp.,
°C
wind,
m/s
gust,
m/s
humid.,
%
clouds,
%
prec.,
mm/h
press.,
hPa
HPBL,
m
29 june, wed
wed2900:00+19wsw227532 0.0 101224
03:00+18w227960 0.0 101238
06:00+20sw237927 0.9 1013138
09:00+25wnw22470 1.1 1012839
12:00+30nnw32290 0.0 10111926
15:00+32n3226100 0.0 10102440
18:00+31nnw2229100 0.0 10101061
21:00+24wnw22425 0.0 101131
30 june, thu
thu3000:00+23sw34537 0.0 101151
03:00+20e116317 0.0 101215
06:00+22e115736 0.0 1012127
09:00+26ne224762 0.0 1012756
12:00+31nne43361 0.0 10111924
15:00+31ne4433100 0.0 10092054
18:00+28e8103599 0.0 1010974
21:00+21e5116591 1.1 1011394
1 july, fri
fri100:00+20e277051 0.4 1011269
03:00+17ne228297 0.6 101141
06:00+19ese247889 0.1 1012243
09:00+24e465268 0.1 1011797
12:00+28ene553357 0.0 10111770
15:00+29ene4429100 0.0 10092140
18:00+25ene1341100 0.1 1010223
21:00+22wnw3451100 0.2 1012130
2 july, sat
sat200:00+20sw3460100 0.0 1012168
03:00+20sw3570100 0.0 1011194
06:00+20wsw2474100 0.1 1012178
09:00+21wnw455989 0.6 1013721
12:00+24w454159 0.1 10141439
15:00+25wnw463641 0.1 10131409
18:00+26nw673095 0.0 10142224
21:00+19w47562 0.0 1016116
3 july, sun
sun300:00+17w37661 0.0 1016110
03:00+16wsw34584 0.0 101673
06:00+18wnw35500 0.0 1016182
09:00+25wnw45300 0.0 10161374
12:00+28nw56230 0.0 10152596
15:00+29nw56205 0.0 10142901
18:00+28nw45231 0.0 10152531
21:00+21w33360 0.0 101636